Tracking 35334 objects as of 12-Sep-2026
HD Live streaming from Space Station
objects crossing your sky now

NINGXIA-1 4

Track NINGXIA-1 4 now!
10-day predictions


NORAD ID: 44782
Int'l Code: 2019-076D
Launch date: November 13, 2019
Source: People's Republic of China (PRC)
Launch site: Taiyaun Space Center, China (TSC)
Your satellite tracking list
Your tracking list is empty




NASA's NSSDC Master Catalog

Two Line Element Set (TLE):
1 44782U 19076D   26255.28315689  .00000101  00000-0  15016-3 0  9998
2 44782  45.0079 150.6102 0012475 177.1556 182.9351 14.01997329350044
Source of the keplerian elements: AFSPC